Location: Beccas
(43.4309°N, 0.1528°E)
Time: 09:51:39
(UTC+00:00)

ATLAS 3B R/B - Pass Details

Date: 15 October 2021
Orbit: 989 x 1206 km, 63.8° (Epoch: 25 November)

Event Time Altitude Azimuth Distance (km) Brightness Sun altitude
Rises 19:11:48 0° 242° (WSW) 3,712 6.4 -21.7°
Reaches altitude 10° 19:14:33 10° 251° (WSW) 2,782 5.7 -22.2°
Maximum altitude 19:20:36 39° 319° (NW) 1,513 3.8 -23.3°
Drops below altitude 10° 19:26:58 10° 27° (NNE) 2,915 4.8 -24.5°
Enters shadow 19:28:44 - 32° (NNE) 3,506 5.2 -24.8°
